Weather Roundup
Issued by NWS Chicago, IL

Home | Current Version | Previous Version | Graphics & Text | Print | Product List | Glossary On
Versions: 1 2 3 4 5 6 7 8 9 10 11 12 13 14 15 16 17 18 19 20 21 22 23 24 25 26 27 28 29 30 31 32 33 34 35 36 37 38 39 40 41 42 43 44 45 46 47 48 49 50
000
NZUS59 KLOT 050712
HRRLOT

CHICAGO AREA WEATHER ROUNDUP
NATIONAL WEATHER SERVICE CHICAGO/ROMEOVILLE IL
200 AM CDT TUE MAY 05 2015

NOTE: "FAIR" INDICATES FEW OR NO CLOUDS BELOW 12,000 FEET WITH NO
SIGNIFICANT WEATHER AND/OR OBSTRUCTIONS TO VISIBILITY.

* THESE STATIONS ARE NOT UNDER NWS QUALITY CONTROL. THEY ALSO MAY NOT
  REPORT WEATHER SUCH AS PRECIPITATION OR FOG.

ILZ005-006-012>014-019>023-050800-
NORTHEAST ILLINOIS

CITY           SKY/WX    TMP DP  RH WIND       PRES   REMARKS
OHARE          LGT RAIN  53  45  74 N8        30.18S
MIDWAY         LGT RAIN  59  43  55 E3        30.18R
AURORA         LGT RAIN  53  45  74 NE9       30.16F
LANSING*       HVY RAIN  56  49  79 N5        30.19R
JOLIET*        LGT RAIN  58  55  89 E5        30.16F
WAUKEGAN       LGT RAIN  52  40  63 CALM      30.20R
DUPAGE AIRPORT CLOUDY    52  47  83 NE7       30.17F
WHEELING       LGT RAIN  52  44  74 N5        30.20R
KANKAKEE*      TSTM      62  61  97 E3        30.17S
MORRIS*        CLOUDY    58  54  85 E7        30.11F
LEWIS AIRPORT* RAIN      54  49  83 E10       30.16F
NORTHERLY IS     N/A     56  40  55 W3          N/A
$$

WIZ051-052-058>065-066-070>072-050800-
SOUTHEAST WISCONSIN

CITY           SKY/WX    TMP DP  RH WIND       PRES   REMARKS
MILWAUKEE      CLOUDY    52  34  50 N7        30.20F
KENOSHA*       CLOUDY    51  40  65 W3        30.21R
RACINE*        CLOUDY    51  36  56 N5        30.22S
BURLINGTON     CLOUDY    51  41  68 CALM      30.19F
WAUKESHA       CLOUDY    52  34  50 NE7       30.21S
WEST BEND      CLOUDY    50  34  53 NE3       30.23S
$$

INZ001>003-010>013-019-020-050800-
NORTHWEST INDIANA

CITY           SKY/WX    TMP DP  RH WIND       PRES   REMARKS
GARY*          CLOUDY    56  46  68 W10G21    30.20R
MICHIGAN CITY* NOT AVBL
RENSSELAER*    NOT AVBL
VALPARAISO     MOCLDY    58  56  93 E6        30.16F
$$

LMZ740>746-050800-
SOUTHERN LAKE MICHIGAN

STATION/POSITION TIME  SKY/WX   TEMP WIND        PRES    VSBY
                                AIR  DIR/SP/G
                 (UTC)          (F)  (DEG/KT/KT) (MB)    (MI)
HARRISON CRIB    0615            48  340/  7/  9   N/A
BURNHAM HARBOR   0700            54  330/  2/  9   N/A
CALUMET HARBOR   0612            49  350/  3/  6   N/A
BURNS HARBOR     0600            53   60/  7/  8 1022.0F
MICHIGAN CITY    0600            58   60/  5/  6   N/A
$$

ABBREVIATIONS USED IN REMARKS
   TC - TEMPERATURE IN CELSIUS
  WCI - WIND CHILL INDEX
   HX - HEAT INDEX
  VSB - VISIBILITY
$$


USA.gov is the U.S. government's official web portal to all federal, state and local government web resources and services.